Погода в Верхнесюрюбаеве

Россия / Республика Башкортостан     52°26′27″N   56°30′34″E
темп.,
°C
ветер,
м/с
пор.,
м/с
влажн.,
%
обл.,
%
осадки,
мм/ч
давл.,
гПа
погр.,
м
19 мая, ср
ср1923:00+18с61375100 0.0 1016318
02:00+15ссв478922 0.3 1015127
05:00+15всв513815 0.3 1015387
08:00+17в613730 0.0 1017676
11:00+20в89600 0.0 1018983
14:00+23в78482 0.0 10181781
17:00+23в67451 0.0 10182182
20:00+19всв410620 0.0 1018246
20 мая, чт
чт2023:00+14всв413640 0.0 1020279
02:00+14в412620 0.0 1020289
05:00+11всв23650 0.0 102127
08:00+15вюв513602 0.0 1021610
11:00+20юв810460 0.0 10201216
14:00+22юв89395 0.0 10191511
17:00+22ююв794398 0.0 10191467
20:00+18юв410611 0.0 1018272
21 мая, пт
пт2123:00+14вюв3457100 0.0 101964
02:00+13вюв225343 0.0 101820
05:00+12вюв2256100 0.0 101914
08:00+16юв495730 0.1 1019418
11:00+20ю565997 0.3 1019793
14:00+23ююв5656100 0.0 10191560
17:00+22ю456184 2.5 1019831
20:00+16юз238735 2.6 1020135
22 мая, сб
сб2223:00+14ююв228840 2.6 102014
02:00+14ю0086100 0.0 102011
05:00+13ююв008863 0.0 102110
08:00+17юв117777 0.0 1022139
11:00+22юз125354 0.0 10211101
14:00+25сз234176 0.0 10211813
17:00+25ссз3443100 0.0 10211917
20:00+22св226496 0.0 102120
23 мая, вс
вс2323:00+18св227033 0.0 102112
02:00+15всв117894 0.0 102111
05:00+14всв1179100 0.0 102111
08:00+19вюв1265100 0.0 1022155
11:00+24юв225226 0.0 1021486
14:00+28юв114170 0.0 1020999
17:00+29ююв22406 0.0 10201135
20:00+25вюв11597 0.0 101911